FW7691 Weather Reports


time (UTC)temp
F
wind
direction
speed
knots
gust
knots
rain 1hr
in
rain 24hr
in
rain mn
in
humidity
%
barometer
mb
20260502233512 48 295 0.0 0.0 0.00 0.00 0.00 43 1016.1
20260502233010 48 350 3.5 6.1 0.00 0.00 0.00 42 1016.1
20260502232506 48 325 2.6 2.6 0.00 0.00 0.00 42 1016.3
20260502232003 48 313 2.6 4.3 0.00 0.00 0.00 43 1016.4
20260502231500 48 272 0.9 1.7 0.00 0.00 0.00 43 1016.3
20260502230958 49 11 1.7 2.6 0.00 0.00 0.00 43 1016.4
20260502230456 51 313 2.6 2.6 0.00 0.00 0.00 40 1016.3
20260502225954 51 320 2.6 2.6 0.00 0.00 0.00 41 1016.4
20260502225449 53 296 1.7 2.6 0.00 0.00 0.00 41 1016.2
20260502224946 53 249 0.0 0.9 0.00 0.00 0.00 42 1016.2
20260502224443 53 68 0.9 0.9 0.00 0.00 0.00 40 1016.2
20260502223939 51 73 0.0 0.0 0.00 0.00 0.00 42 1016.2
20260502223437 51 0 2.6 5.2 0.00 0.00 0.00 41 1016.4
20260502222935 50 318 1.7 2.6 0.00 0.00 0.00 41 1016.4
20260502222433 48 293 1.7 1.7 0.00 0.00 0.00 46 1016.3
20260502221928 48 270 0.9 1.7 0.00 0.00 0.00 44 1016.4
20260502221425 48 354 1.7 2.6 0.00 0.00 0.00 45 1016.4
20260502220922 49 6 3.5 5.2 0.00 0.00 0.00 44 1016.4
20260502220418 48 274 2.6 2.6 0.00 0.00 0.00 45 1016.3
20260502215914 48 13 2.6 2.6 0.00 0.00 0.00 43 1016.3
20260502215412 48 45 1.7 1.7 0.00 0.00 0.00 44 1016.3
20260502214909 48 275 1.7 1.7 0.00 0.00 0.00 45 1016.3
20260502214405 49 301 5.2 7.0 0.00 0.00 0.00 43 1016.5
20260502213903 50 274 2.6 2.6 0.00 0.00 0.00 45 1016.6
20260502213359 50 255 0.0 1.7 0.00 0.00 0.00 45 1016.5
20260502212859 49 267 2.6 2.6 0.00 0.00 0.00 44 1016.3
20260502212356 48 311 1.7 2.6 0.00 0.00 0.00 46 1016.4
20260502211853 48 322 1.7 1.7 0.00 0.00 0.00 45 1016.5
20260502211349 48 6 2.6 2.6 0.00 0.00 0.00 43 1016.5
20260502210847 49 307 3.5 4.3 0.00 0.00 0.00 45 1016.4
20260502210343 50 334 2.6 2.6 0.00 0.00 0.00 46 1016.7
20260502205841 48 163 0.9 0.9 0.00 0.00 0.00 49 1016.6
20260502205337 48 67 3.5 4.3 0.00 0.00 0.00 46 1016.7
20260502204834 48 289 0.9 1.7 0.00 0.00 0.00 49 1016.6
20260502204331 48 57 0.9 0.9 0.00 0.00 0.00 45 1016.8
20260502203828 48 159 0.9 0.9 0.00 0.00 0.00 47 1016.6
20260502203326 47 330 0.9 0.9 0.00 0.00 0.00 50 1016.7
20260502202826 46 317 3.5 5.2 0.00 0.00 0.00 49 1016.9
20260502202324 47 328 1.7 1.7 0.00 0.00 0.00 50 1017.0
20260502201822 47 297 2.6 4.3 0.00 0.00 0.00 48 1016.9
20260502201318 47 319 2.6 2.6 0.00 0.00 0.00 47 1016.9
20260502200814 47 278 0.9 0.9 0.00 0.00 0.00 48 1017.3
20260502200310 47 56 1.7 1.7 0.00 0.00 0.00 47 1017.3
20260502195808 46 261 0.9 1.7 0.00 0.00 0.00 47 1017.4
20260502195305 47 330 4.3 6.1 0.00 0.00 0.00 47 1017.2
20260502194801 48 128 1.7 1.7 0.00 0.00 0.00 47 1017.3
20260502194258 48 153 0.9 1.7 0.00 0.00 0.00 47 1017.2
20260502193754 48 261 1.7 2.6 0.00 0.00 0.00 46 1017.3
20260502193252 48 3 5.2 6.1 0.00 0.00 0.00 44 1017.6
20260502192751 47 297 0.9 1.7 0.00 0.00 0.00 47 1017.6
20260502192249 48 58 2.6 2.6 0.00 0.00 0.00 48 1017.7
20260502191746 48 275 2.6 2.6 0.00 0.00 0.00 46 1017.4
20260502191244 48 319 0.9 1.7 0.00 0.00 0.00 48 1017.6
20260502190741 47 267 1.7 4.3 0.00 0.00 0.00 46 1017.7
20260502190239 46 324 4.3 4.3 0.00 0.00 0.00 47 1017.7
20260502185738 46 299 2.6 2.6 0.00 0.00 0.00 46 1018.1
20260502185235 46 92 3.5 5.2 0.00 0.00 0.00 46 1017.8
20260502184732 46 324 5.2 6.1 0.00 0.00 0.00 45 1017.8
20260502184227 47 258 5.2 7.0 0.00 0.00 0.00 43 1018.0
20260502183724 48 342 7.0 12.2 0.00 0.00 0.00 45 1017.7
20260502183220 47 357 0.9 0.9 0.00 0.00 0.00 47 1018.0
20260502182716 47 284 3.5 5.2 0.00 0.00 0.00 45 1018.1
20260502182211 49 316 3.5 7.0 0.00 0.00 0.00 43 1018.0
20260502181709 48 283 0.9 1.7 0.00 0.00 0.00 45 1018.1
20260502181208 47 274 0.9 1.7 0.00 0.00 0.00 46 1018.1
20260502180704 46 266 2.6 2.6 0.00 0.00 0.00 44 1018.1
20260502180202 49 232 4.3 5.2 0.00 0.00 0.00 43 1018.1
20260502170126 45 214 0.9 1.7 0.00 0.00 0.00 49 1018.6
20260502164113 46 347 2.6 2.6 0.00 0.00 0.00 46 1018.7
20260502163609 48 257 0.0 0.0 0.00 0.00 0.00 44 1018.8
20260502163105 47 161 2.6 4.3 0.00 0.00 0.00 44 1018.8
20260502162602 46 315 4.3 5.2 0.00 0.00 0.00 46 1018.7
20260502162059 46 355 3.5 4.3 0.00 0.00 0.00 47 1018.9
20260502161556 47 300 0.9 1.7 0.00 0.00 0.00 45 1019.0
20260502161054 44 358 1.7 1.7 0.00 0.00 0.00 51 1018.9
20260502160552 44 352 5.2 6.1 0.00 0.00 0.00 48 1018.9
20260502152004 46 92 0.9 0.9 0.00 0.00 0.00 49 1019.0
20260502151501 46 293 0.9 1.7 0.00 0.00 0.00 51 1019.0
20260502150958 45 35 0.9 0.9 0.00 0.00 0.00 50 1018.8
20260502150455 46 132 0.0 0.9 0.00 0.00 0.00 50 1018.7
20260502130341 39 335 3.5 4.3 0.00 0.00 0.00 74 1019.1
20260502123323 37 18 1.7 1.7 0.00 0.00 0.00 78 1019.1
20260502122821 37 46 1.7 1.7 0.00 0.00 0.00 78 1018.9
20260502122316 37 35 1.7 1.7 0.00 0.00 0.00 78 1019.2
20260502121815 37 2 1.7 1.7 0.00 0.00 0.00 79 1018.7
20260502121312 36 335 0.0 0.0 0.00 0.00 0.00 82 1018.6
20260502120809 35 358 0.0 0.0 0.00 0.00 0.00 84 1018.6
20260502120305 34 339 1.7 2.6 0.00 0.00 0.00 85 1018.8
20260502115803 34 359 0.0 0.0 0.00 0.00 0.00 86 1018.7
20260502115300 33 296 0.9 0.9 0.00 0.00 0.00 86 1018.7
20260502114756 32 346 1.7 1.7 0.00 0.00 0.00 87 1018.8
20260502114253 32 330 0.9 1.7 0.00 0.00 0.00 88 1018.6
20260502113750 32 290 0.9 0.9 0.00 0.00 0.00 89 1018.7
20260502113248 31 286 2.6 2.6 0.00 0.00 0.00 89 1018.6
20260502112746 31 318 0.9 1.7 0.00 0.00 0.00 90 1018.4
20260502112243 31 296 0.9 1.7 0.00 0.00 0.00 91 1018.4
20260502111740 30 310 0.0 0.0 0.00 0.00 0.00 91 1018.4
20260502111237 30 300 0.0 0.0 0.00 0.00 0.00 92 1018.3
20260502110735 30 299 0.0 0.0 0.00 0.00 0.00 92 1018.3
20260502110232 30 299 0.0 0.0 0.00 0.00 0.00 92 1018.3
20260502105730 30 299 0.0 0.0 0.00 0.00 0.00 92 1018.3
20260502105226 29 299 0.0 0.0 0.00 0.00 0.00 93 1018.1
20260502104724 29 299 0.0 0.0 0.00 0.00 0.00 93 1018.4
20260502104222 29 299 0.0 0.0 0.00 0.00 0.00 93 1018.2
20260502103719 29 299 0.0 0.0 0.00 0.00 0.00 92 1018.5
20260502103217 29 299 0.0 0.0 0.00 0.00 0.00 92 1018.2
20260502102713 29 299 0.0 0.0 0.00 0.00 0.00 92 1018.3
20260502102210 29 299 0.0 0.0 0.00 0.00 0.00 92 1018.3
20260502101708 29 299 0.0 0.0 0.00 0.00 0.00 92 1018.2
20260502101206 29 299 0.0 0.0 0.00 0.00 0.00 92 1018.2
20260502100704 29 299 0.0 0.0 0.00 0.00 0.00 92 1018.0
20260502100202 29 299 0.0 0.0 0.00 0.00 0.00 92 1018.1
20260502091136 29 299 0.0 0.0 0.00 0.00 0.00 91 1018.2
20260502090633 29 299 0.0 0.0 0.00 0.00 0.00 90 1017.6
20260502090130 29 299 0.0 0.0 0.00 0.00 0.00 90 1017.7
20260502071528 32 246 0.0 0.0 0.00 0.00 0.00 88 1017.7
20260502071026 32 246 0.0 0.0 0.00 0.00 0.00 88 1017.6
20260502070523 32 246 0.0 0.0 0.00 0.00 0.00 88 1017.6
20260502070022 32 246 0.0 0.0 0.00 0.00 0.00 87 1017.6
20260502065520 32 246 0.0 0.0 0.00 0.00 0.00 87 1017.7
20260502065017 32 246 0.0 0.0 0.00 0.00 0.00 86 1017.7
20260502064515 33 246 0.0 0.0 0.00 0.00 0.00 86 1017.7
20260502064012 33 246 0.0 0.0 0.00 0.00 0.00 86 1017.7
20260502063510 34 246 0.0 0.0 0.00 0.00 0.00 86 1017.7
20260502063008 34 246 0.0 0.0 0.00 0.00 0.00 85 1017.6
20260502062504 35 246 0.0 0.0 0.00 0.00 0.00 84 1017.8
20260502062003 35 246 0.0 0.0 0.00 0.00 0.00 82 1017.8
20260502061500 35 246 0.0 0.0 0.00 0.00 0.00 81 1017.8
20260502060956 36 246 0.0 0.0 0.00 0.00 0.00 80 1017.8
20260502060451 36 246 0.0 0.0 0.00 0.00 0.00 80 1017.8
20260502055949 36 246 0.0 0.0 0.00 0.00 0.00 80 1017.8
20260502055446 37 246 0.0 0.9 0.00 0.00 0.00 81 1017.7
20260502054940 37 246 0.0 0.0 0.00 0.00 0.00 79 1017.8
20260502054438 37 246 0.0 0.0 0.00 0.00 0.00 76 1017.8
20260502053935 38 246 0.0 0.0 0.00 0.00 0.00 75 1018.1
20260502053432 38 246 0.0 0.0 0.00 0.00 0.00 74 1018.1
20260502052930 38 246 0.0 0.0 0.00 0.00 0.00 72 1018.0
20260502052428 38 239 0.0 0.9 0.00 0.00 0.00 70 1018.0
20260502051926 38 213 0.0 0.9 0.00 0.00 0.00 70 1017.8
20260502051424 38 280 1.7 2.6 0.00 0.00 0.00 73 1018.1
20260502050920 38 329 0.0 0.0 0.00 0.00 0.00 74 1017.8
20260502050417 39 329 0.0 0.0 0.00 0.00 0.00 74 1017.6
20260502045914 39 330 0.0 0.0 0.00 0.00 0.00 74 1018.0
20260502045411 39 329 0.0 0.0 0.00 0.00 0.00 73 1017.7
20260502044908 39 329 0.0 0.0 0.00 0.00 0.00 72 1017.6
20260502044403 39 330 0.0 0.0 0.00 0.00 0.00 70 1017.7
20260502043901 40 292 0.0 0.0 0.00 0.00 0.00 69 1017.6
20260502043358 40 282 0.0 0.0 0.00 0.00 0.00 68 1017.8
20260502042858 40 306 0.0 0.0 0.00 0.00 0.00 68 1017.4
20260502042355 40 302 0.0 0.9 0.00 0.00 0.00 68 1017.5
20260502041852 40 307 0.0 0.9 0.00 0.00 0.00 68 1017.4
20260502041350 40 290 0.9 1.7 0.00 0.00 0.00 68 1017.4
20260502040847 40 284 0.9 1.7 0.00 0.00 0.00 68 1017.3
20260502040344 40 84 0.0 0.9 0.00 0.00 0.00 69 1017.4
20260502035840 40 39 0.0 0.9 0.00 0.02 0.02 67 1017.2
20260502035337 40 354 2.6 2.6 0.00 0.02 0.02 67 1017.1
20260502034834 40 358 0.0 0.0 0.00 0.02 0.02 68 1017.0
20260502034332 40 347 1.7 1.7 0.00 0.02 0.02 69 1017.0
20260502033831 40 94 0.9 1.7 0.00 0.02 0.02 69 1016.9
20260502033328 40 61 0.9 0.9 0.00 0.02 0.02 69 1017.1
20260502032824 40 72 1.7 2.6 0.00 0.02 0.02 69 1016.9
20260502032320 40 163 0.9 0.9 0.00 0.02 0.02 73 1017.0
20260502031818 40 191 0.0 0.9 0.00 0.02 0.02 72 1016.9
20260502031316 40 81 0.9 0.9 0.00 0.02 0.02 71 1017.0
20260502030814 40 286 0.9 0.9 0.00 0.02 0.02 71 1017.2
20260502030312 39 280 2.6 2.6 0.00 0.02 0.02 71 1017.1
20260502025809 39 270 0.9 1.7 0.00 0.02 0.02 73 1017.1
20260502025307 39 288 1.7 2.6 0.00 0.02 0.02 74 1017.1
20260502024805 38 291 0.9 0.9 0.00 0.02 0.02 77 1017.0
20260502024302 37 282 1.7 1.7 0.00 0.02 0.02 84 1016.9
20260502023800 37 266 0.0 0.0 0.00 0.02 0.02 85 1016.9
20260502023258 36 266 0.0 0.0 0.00 0.02 0.02 85 1016.8
20260502022755 36 266 0.0 0.0 0.00 0.02 0.02 85 1016.8
20260502022251 36 266 0.0 0.0 0.00 0.02 0.02 86 1016.9
20260502021748 36 266 0.0 0.0 0.00 0.02 0.02 86 1016.9
20260502021245 36 266 0.0 0.0 0.00 0.02 0.02 85 1016.8
20260502020743 36 266 0.0 0.0 0.00 0.02 0.02 83 1016.7
20260502020240 36 266 0.0 0.0 0.00 0.02 0.02 82 1016.6
20260502015738 37 266 0.0 0.0 0.00 0.02 0.02 82 1016.9
20260502015233 37 266 0.0 0.0 0.00 0.02 0.02 81 1016.4
20260502014731 37 266 0.0 0.0 0.00 0.02 0.02 79 1016.7
20260502014228 38 266 0.0 0.0 0.00 0.02 0.02 79 1016.6
20260502013724 38 266 0.0 0.0 0.00 0.02 0.02 78 1016.3
20260502013220 39 266 0.0 0.0 0.00 0.02 0.02 78 1016.4
20260502012717 39 312 0.0 0.0 0.00 0.02 0.02 77 1016.3
20260502012215 39 307 0.0 0.0 0.00 0.02 0.02 76 1016.3
20260502011712 40 307 0.0 0.0 0.00 0.02 0.02 76 1016.1
20260502011207 40 307 0.0 0.0 0.00 0.02 0.02 74 1016.2
20260502010706 41 307 0.0 0.0 0.00 0.02 0.02 73 1016.3
20260502010201 41 305 0.0 0.9 0.00 0.02 0.02 71 1016.1
20260502005659 41 271 0.0 0.0 0.00 0.02 0.02 71 1016.2
20260502005156 41 314 1.7 1.7 0.00 0.02 0.02 70 1016.2
20260502004652 41 268 0.9 0.9 0.00 0.02 0.02 70 1016.4
20260502004149 42 349 0.9 0.9 0.00 0.02 0.02 69 1016.2
20260502003647 42 322 1.7 2.6 0.00 0.02 0.02 68 1016.3
20260502003144 42 295 0.9 0.9 0.00 0.02 0.02 66 1016.3
20260502002640 42 345 4.3 5.2 0.00 0.02 0.02 66 1016.1
20260502002138 43 324 3.5 5.2 0.00 0.02 0.02 65 1016.1
20260502001635 43 309 0.9 0.9 0.00 0.02 0.02 64 1015.9
20260502001132 43 296 1.7 1.7 0.00 0.02 0.02 63 1016.0
20260502000630 43 317 3.5 6.1 0.00 0.02 0.02 63 1016.0
20260502000127 43 266 1.7 1.7 0.00 0.02 0.02 63 1016.1
20260501235623 43 299 0.9 1.7 0.00 0.02 0.02 64 1015.8
20260501235119 43 325 1.7 1.7 0.00 0.02 0.02 65 1016.0
20260501234615 43 286 0.9 1.7 0.00 0.02 0.02 67 1015.9
20260501234112 43 8 0.9 1.7 0.00 0.02 0.02 68 1016.1